Location: Bottom School (historical)
(37.9078°N, 89.3593°W)
Time: 11:39:34
(UTC+00:00)

STRAND 1 - Visible Passes

Search period start: 02 April 2023 00:00
Search period end: 12 April 2023 00:00
Orbit: 766 x 780 km, 98.4° (Epoch: 01 April)

Date Brightness Start Highest point End Pass type
(mag) Time Alt. Az. Time Alt. Az. Time Alt. Az.
02 Apr ? 01:19:15 10° N 01:24:05 45° WNW 01:28:53 10° SW visible
02 Apr ? 10:55:05 10° ESE 10:59:03 23° ENE 11:03:03 10° NNE visible
03 Apr ? 00:44:39 10° NNE 00:49:46 84° ESE 00:54:51 10° SSW visible
03 Apr ? 02:26:44 10° NW 02:28:10 11° WNW 02:29:36 10° WNW visible
03 Apr ? 10:23:36 10° ENE 10:25:05 11° ENE 10:26:33 10° NE visible
04 Apr ? 01:50:13 10° NNW 01:54:10 23° WNW 01:58:09 10° WSW visible
05 Apr ? 01:15:07 10° N 01:20:01 49° WNW 01:24:53 10° SW visible
05 Apr ? 10:51:13 10° ESE 10:55:01 22° ENE 10:58:50 10° NNE visible
06 Apr ? 02:22:10 10° NW 02:24:08 12° WNW 02:26:07 10° W visible
06 Apr ? 10:20:34 10° ENE 10:21:04 10° ENE 10:21:33 10° NE visible
07 Apr ? 01:46:01 10° NNW 01:50:08 25° WNW 01:54:15 10° WSW visible
08 Apr ? 01:11:00 10° N 01:15:56 53° WNW 01:20:53 10° SSW visible
08 Apr ? 10:47:21 10° ESE 10:50:59 20° ENE 10:54:36 10° NNE visible
09 Apr ? 02:17:43 10° NW 02:20:06 13° WNW 02:22:29 10° W visible
10 Apr ? 01:41:48 10° N 01:46:04 28° WNW 01:50:19 10° SW visible
11 Apr ? 01:06:51 10° N 01:11:51 59° WNW 01:16:50 10° SSW visible
11 Apr ? 10:43:30 10° ESE 10:46:55 18° ENE 10:50:20 10° NNE visible
